Starlink 6034

operational
NORAD ID: 56324 Int'l Des: 2023-058 Owner: SPXS Country: US Constellation: starlink
LEOCIRCULARRETROGRADESSO

Starlink 6034について

説明を読み込み中...

リアルタイム位置

3D地球を読み込み中...

次回通過

高度履歴

Altitude vs Time

uPlot chart will show altitude changes over time

軌道要素

1 56324U 23058H 25303.24494983 -.00000151 00000-0 -62791-5 0 9993
2 56324 97.6019 302.7180 0001777 88.6329 271.5101 15.05646257138227
Epoch: Oct 30, 2025 • Age: 20 hours

現在のステータス

高度 552.5 km
速度 7.59 km/s
衛星直下点 27.39°N, 62.46°E
打ち上げ日 Apr 27, 2023
運用期間 2.5 years
タイプ internet

技術仕様

分類 Payload
質量 300.00 kg
乾燥質量 260.00 kg
総質量 300.00 kg
長さ 0.20 m
直径 2.80 m
スパン 9.00 m
形状 Box + pan
製造者 SPXS
バスタイプ Starlink
フェーズステータス In Orbit
所有者/国 SPXS/US

大規模コンステレーション

Loading constellations...